This demonstration page uses our WeatherBlox Daily Observations layout. Learn more.

Left ArrowRight Arrow

39.08367, -84.50855

Hourly Observations for July 28, 2015

Temp ( °F °C ) Dew Point ( °F °C ) Humidity (%) Winds ( mph kmh ) Pressure ( in mb ) Visibility ( mi km ) Precip ( " mm )
12:43 am 00:43 Clear with Mist and Fog 72 22.2 72 22.2 100 100 Calm 29.97 1015 3 4 0.00 0.00
12:53 am 00:53 Clear with Mist and Fog 72 22.2 72 22.2 100 100 Calm 29.98 1015 2 2 0.00 0.00
1:03 am 01:03 Clear with Mist and Fog 72 22 72 22 100 100 Calm 29.97 1015 2 3 0.00 0.00
1:10 am 01:10 Clear with Mist and Fog 72 22 72 22 100 100 Calm 29.97 1015 2 2 0.00 0.00
1:15 am 01:15 Clear with Mist and Fog 72 22.2 72 22.2 100 100 ENE 3 6 29.97 1015 3 5 0.00 0.00
1:53 am 01:53 Mostly Clear with Mist and Fog 72 22.2 72 22.2 100 100 Calm 29.97 1015 2 3 0.00 0.00
2:00 am 02:00 Mostly Clear with Mist and Fog 72 22 72 22 100 100 Calm 29.94 1014 2 2 0.00 0.00
2:10 am 02:10 Mostly Clear with Mist and Fog 72 22 72 22 100 100 Calm 29.94 1014 3 5 0.00 0.00
2:14 am 02:14 Mostly Clear with Mist and Fog 70 21 70 21 100 100 SE 3 6 29.94 1014 2 2 0.00 0.00
2:21 am 02:21 Mostly Cloudy with Mist and Fog 71 21.7 71 21.7 100 100 Calm 29.94 1014 1 2 0.00 0.00
2:25 am 02:25 Mostly Clear with Mist and Fog 72 22.2 72 22.2 100 100 Calm 29.94 1014 2 3 0.00 0.00
2:37 am 02:37 Mostly Cloudy with Mist and Fog 71 21.7 71 21.7 100 100 NE 3 6 29.94 1014 1 2 0.00 0.00
2:40 am 02:40 Mostly Cloudy with Fog 71 21.7 71 21.7 100 100 ENE 3 6 29.94 1014 1 1 0.00 0.00
2:48 am 02:48 Mostly Cloudy with Fog 70 21 70 21 100 100 Calm 29.94 1014 0 0 0.00 0.00
2:53 am 02:53 Mostly Cloudy with Fog 70 21.1 70 21.1 100 100 Calm 29.96 1015 1 1 0.00 0.00
2:59 am 02:59 Partly Cloudy with Mist and Fog 70 21.1 70 21.1 100 100 Calm 29.94 1014 1 2 0.00 0.00
3:08 am 03:08 Partly Cloudy with Mist and Fog 70 21 70 21 100 100 Calm 29.94 1014 3 5 0.00 0.00
3:14 am 03:14 Mostly Clear with Mist and Fog 70 21 70 21 100 100 Calm 29.94 1014 2 2 0.00 0.00
3:18 am 03:18 Mostly Cloudy with Mist and Fog 70 21 70 21 100 100 Calm 29.94 1014 1 1 0.00 0.00
3:39 am 03:39 Mostly Cloudy with Mist and Fog 70 21.1 70 21.1 100 100 Calm 29.94 1014 2 3 0.00 0.00
3:51 am 03:51 Mostly Cloudy with Mist and Fog 70 21 70 21 100 100 Calm 29.94 1014 1 2 0.00 0.00
3:53 am 03:53 Mostly Cloudy with Mist and Fog 70 21.1 70 21.1 100 100 Calm 29.95 1014 1 2 0.00 0.00
3:58 am 03:58 Mostly Cloudy with Mist and Fog 70 21.1 70 21.1 100 100 Calm 29.94 1014 3 5 0.00 0.00
4:08 am 04:08 Partly Cloudy with Mist and Fog 72 22 72 22 100 100 Calm 29.94 1014 3 4 0.00 0.00
4:16 am 04:16 Mostly Cloudy with Mist and Fog 70 21 70 21 100 100 Calm 29.94 1014 1 2 0.00 0.00
4:21 am 04:21 Mostly Cloudy with Fog 70 21.1 70 21.1 100 100 Calm 29.94 1014 0 0 0.00 0.00
4:53 am 04:53 Mostly Cloudy with Fog 70 21.1 70 21.1 100 100 Calm 29.96 1015 5 8 0.00 0.00
5:53 am 05:53 Mostly Cloudy with Fog 70 21.1 70 21.1 100 100 Calm 29.97 1015 0 0 0.00 0.00
6:06 am 06:06 Mostly Cloudy with Fog 70 21 70 21 100 100 Calm 29.97 1015 1 1 0.00 0.00
6:20 am 06:20 Mostly Cloudy with Fog 72 22 72 22 100 100 Calm 29.97 1015 0 0 0.00 0.00
6:53 am 06:53 Mostly Cloudy with Mist and Fog 70 21.1 70 21.1 100 100 Calm 29.98 1015 1 2 0.00 0.00
7:34 am 07:34 Partly Cloudy with Mist and Fog 72 22 72 22 100 100 Calm 29.97 1015 3 5 0.00 0.00
7:53 am 07:53 Sunny with Mist and Fog 71 21.7 71 21.7 100 100 NNE 3 6 30.00 1016 4 6 0.00 0.00
8:53 am 08:53 Sunny with Mist and Fog 74 23.3 73 22.8 97 97 ENE 5 7 29.99 1016 5 8 0.00 0.00
9:53 am 09:53 Sunny 79 26.1 74 23.3 85 85 Calm 29.99 1016 8 13 0.00 0.00
10:53 am 10:53 Partly Cloudy 82 28 75 24 79 79 W 3 6 29.97 1015 8 13 0.00 0.00
11:53 am 11:53 Sunny 86 30 75 23.9 70 70 Calm 29.98 1015 10 16 0.00 0.00
12:53 pm 12:53 Sunny 86 30 72 22.2 63 63 Calm 29.98 1015 10 16 0.00 0.00
1:53 pm 13:53 Partly Cloudy 86 30 73 22.8 65 65 W 6 9 29.97 1015 10 16 0.00 0.00
2:53 pm 14:53 Mostly Cloudy 88 31.1 72 22.2 59 59 Calm 29.95 1014 10 16 0.00 0.00
3:53 pm 15:53 Mostly Cloudy 87 30.6 74 23.3 65 65 Calm 29.94 1014 10 16 0.00 0.00
4:53 pm 16:53 Partly Cloudy 90 32.2 74 23.3 59 59 Calm 29.92 1013 10 16 0.00 0.00
5:53 pm 17:53 Partly Cloudy 89 31.7 72 22.2 57 57 Calm 29.92 1013 10 16 0.00 0.00
6:53 pm 18:53 Mostly Cloudy 89 31.7 75 23.9 63 63 ENE 8 13 29.91 1013 10 16 0.00 0.00
7:53 pm 19:53 Mostly Cloudy 86 30 74 23.3 67 67 E 3 6 29.91 1013 10 16 0.00 0.00
8:53 pm 20:53 Partly Cloudy 81 27.2 76 24.4 85 85 Calm 29.91 1013 10 16 0.00 0.00
9:53 pm 21:53 Clear 77 25 75 23.9 94 94 Calm 29.93 1014 10 16 0.00 0.03
10:53 pm 22:53 Mostly Cloudy 78 25.6 76 24.4 93 93 WSW 3 6 29.98 1015 9 14 0.00 0.00
11:53 pm 23:53 Clear with Mist and Fog 76 24.4 75 23.9 97 97 ENE 3 6 29.98 1015 6 10 0.00 0.00

Powered by AerisWeather